TimeCDT,TemperatureF,Dew PointF,Humidity,Sea Level PressureIn,VisibilityMPH,Wind Direction,Wind SpeedMPH,Gust SpeedMPH,PrecipitationIn,Events,Conditions,WindDirDegrees,DateUTC
12:53 AM,37.9,33.1,83,29.93,10.0,NE,6.9,-,N/A,,Overcast,40,2012-10-11 05:53:00
1:53 AM,37.9,33.1,83,29.91,10.0,NE,4.6,-,N/A,,Overcast,50,2012-10-11 06:53:00
2:53 AM,37.0,33.1,86,29.90,10.0,NNE,4.6,-,N/A,,Overcast,30,2012-10-11 07:53:00
3:36 AM,37.4,33.8,87,29.87,10.0,Variable,3.5,-,0.00,,Overcast,0,2012-10-11 08:36:00
3:53 AM,37.0,33.1,86,29.90,10.0,Calm,Calm,-,0.00,Rain,Light Rain,0,2012-10-11 08:53:00
4:53 AM,36.0,33.1,89,29.92,10.0,Calm,Calm,-,N/A,,Overcast,0,2012-10-11 09:53:00
5:14 AM,35.6,33.8,93,29.89,10.0,Calm,Calm,-,N/A,,Overcast,0,2012-10-11 10:14:00
5:38 AM,37.4,33.8,87,29.90,10.0,Calm,Calm,-,N/A,,Overcast,0,2012-10-11 10:38:00
5:53 AM,37.0,33.1,86,29.94,10.0,Calm,Calm,-,N/A,,Overcast,0,2012-10-11 10:53:00
6:16 AM,37.4,33.8,87,29.92,10.0,Variable,3.5,-,0.00,Rain,Light Rain,0,2012-10-11 11:16:00
6:25 AM,37.4,33.8,87,29.93,10.0,Variable,4.6,-,0.00,Rain,Light Rain,0,2012-10-11 11:25:00
6:53 AM,36.0,33.1,89,29.97,10.0,Variable,4.6,-,0.00,,Overcast,0,2012-10-11 11:53:00
7:53 AM,36.0,32.0,86,30.00,10.0,Calm,Calm,-,N/A,,Mostly Cloudy,0,2012-10-11 12:53:00
8:18 AM,35.6,32.0,87,29.99,10.0,Variable,3.5,-,N/A,,Mostly Cloudy,0,2012-10-11 13:18:00
8:53 AM,37.0,32.0,82,30.05,10.0,Variable,3.5,-,N/A,,Overcast,0,2012-10-11 13:53:00
9:53 AM,37.9,30.9,76,30.07,10.0,Variable,6.9,-,N/A,,Mostly Cloudy,0,2012-10-11 14:53:00
10:15 AM,37.4,30.2,75,30.05,10.0,Variable,5.8,-,N/A,,Scattered Clouds,0,2012-10-11 15:15:00
10:31 AM,37.4,30.2,75,30.07,10.0,Variable,6.9,-,N/A,,Mostly Cloudy,0,2012-10-11 15:31:00
10:53 AM,39.0,28.0,65,30.11,10.0,WNW,8.1,-,N/A,,Mostly Cloudy,300,2012-10-11 15:53:00
11:05 AM,39.2,28.4,65,30.08,10.0,Variable,6.9,18.4,N/A,,Scattered Clouds,0,2012-10-11 16:05:00
11:53 AM,39.0,26.1,60,30.14,10.0,NW,8.1,-,N/A,,Scattered Clouds,320,2012-10-11 16:53:00
12:19 PM,39.2,26.6,61,30.11,10.0,Variable,6.9,-,N/A,,Mostly Cloudy,0,2012-10-11 17:19:00
12:26 PM,41.0,26.6,57,30.11,10.0,NNW,8.1,-,N/A,,Scattered Clouds,340,2012-10-11 17:26:00
12:53 PM,42.1,27.0,55,30.14,10.0,Variable,6.9,-,N/A,,Mostly Cloudy,0,2012-10-11 17:53:00
1:53 PM,43.0,25.0,49,30.16,10.0,Variable,5.8,24.2,N/A,,Scattered Clouds,0,2012-10-11 18:53:00
2:53 PM,44.1,24.1,45,30.18,10.0,NNW,8.1,-,N/A,,Mostly Cloudy,330,2012-10-11 19:53:00
3:53 PM,42.1,23.0,47,30.20,10.0,Variable,5.8,-,N/A,,Scattered Clouds,0,2012-10-11 20:53:00
5:53 PM,39.9,21.9,49,30.25,10.0,Calm,Calm,-,N/A,,Partly Cloudy,0,2012-10-11 22:53:00
6:53 PM,34.0,23.0,64,30.28,10.0,Calm,Calm,-,N/A,,Clear,0,2012-10-11 23:53:00
8:53 PM,27.0,19.9,75,30.33,10.0,Calm,Calm,-,N/A,,Clear,0,2012-10-12 01:53:00
9:53 PM,25.0,18.0,75,30.35,10.0,Calm,Calm,-,N/A,,Clear,0,2012-10-12 02:53:00
10:53 PM,24.1,18.0,77,30.38,10.0,Calm,Calm,-,N/A,,Clear,0,2012-10-12 03:53:00
11:53 PM,21.9,18.0,85,30.40,10.0,Calm,Calm,-,N/A,,Clear,0,2012-10-12 04:53:00